Theta_e
322 322 322 322 322 322 322 322 321 321 322 322 321 319 320 321 320 318 318 319 319 320 320 321 321 322 322 325 322 319 325 325 326 327 326 324 325 323 323 324 323 322 322 323 322
322 322 322 322 322 322 322 322 320 320 321 321 320 319 321 319 319 317 317 318 317 319 320 321 322 322 324 324 325 325 325 325 324 324 326 325 324 324 324 324 324 323 322 322 321
322 322 322 322 322 321 321 321 319 319 320 321 319 319 321 318 320 320 318 317 317 319 320 320 321 322 325 324 324 325 327 324 324 325 323 324 324 323 324 325 321 321 321 320 320
322 322 322 322 321 318 317 318 318 319 320 320 319 319 319 323 325 319 318 319 318 318 319 320 322 323 325 325 322 326 323 323 324 322 322 323 322 323 322 319 317 317 320 321 320
316 316 316 321 315 315 316 316 317 319 318 318 319 321 323 321 319 319 318 318 319 319 319 320 321 322 324 322 322 324 323 322 321 321 321 321 322 323 319 317 316 321 322 322 322
314 316 317 315 314 316 317 318 318 319 318 319 322 322 322 320 317 318 319 318 318 318 319 320 320 319 321 321 323 321 321 321 321 321 320 322 322 322 319 317 317 321 321 320 319
314 314 314 314 315 316 318 318 319 318 320 320 319 318 318 316 316 317 318 320 320 321 321 322 320 320 320 321 320 321 324 323 322 321 319 319 323 323 318 317 316 319 317 314 312
313 314 313 315 315 316 318 318 319 319 319 319 319 318 316 315 315 316 318 318 318 320 321 321 320 321 321 321 321 323 323 322 322 321 319 319 321 321 317 315 315 318 314 311 309
312 313 313 315 316 315 317 318 318 320 320 319 318 318 316 315 315 315 316 317 318 318 317 318 320 318 318 320 322 321 321 321 320 319 317 316 317 317 316 314 316 316 311 310 310
312 313 314 315 316 316 317 316 316 317 317 316 316 317 315 314 313 314 315 315 315 317 317 317 317 318 318 319 319 319 318 317 318 317 314 314 316 315 313 314 313 311 311 310 309
312 313 315 315 315 315 316 317 318 317 316 315 315 315 315 313 313 313 314 314 315 315 317 315 318 317 315 315 315 316 315 315 315 313 312 313 313 313 311 312 311 310 309 309 308
313 314 315 315 315 315 317 316 315 315 316 314 314 314 314 314 315 313 314 315 315 316 315 317 317 313 313 312 312 312 313 314 313 312 311 312 311 312 308 308 308 309 309 308 308
313 314 315 315 315 315 315 315 314 315 318 315 313 313 312 313 311 311 312 312 314 315 314 316 313 311 312 311 312 312 312 311 311 311 310 310 310 311 307 307 307 307 307 307 306
314 314 315 316 315 313 312 315 315 315 320 316 314 313 312 312 312 310 310 311 313 313 312 313 311 311 311 310 310 312 310 310 310 309 309 308 309 313 310 309 308 307 307 306 306
315 315 315 315 313 312 311 314 316 315 324 315 314 312 311 312 310 311 309 311 312 312 313 312 311 311 311 310 309 311 309 309 308 309 308 309 309 312 310 311 308 307 306 306 305
314 314 314 314 314 311 311 315 315 320 323 317 313 312 313 310 309 309 309 308 308 311 311 309 308 309 309 309 308 308 308 308 307 308 310 308 306 307 309 307 307 305 304 304 304
314 313 313 313 313 311 311 314 322 324 315 316 314 311 311 310 309 309 309 309 310 311 310 310 310 308 307 309 308 308 307 306 309 310 308 307 305 306 306 306 306 304 302 303 303
314 312 312 312 312 311 311 316 325 316 316 312 311 310 312 309 308 309 309 310 309 309 310 308 309 308 307 307 307 307 305 305 304 304 305 305 304 307 305 304 303 301 301 301 301
313 311 311 311 311 311 312 321 318 315 311 312 311 313 311 310 308 307 309 309 308 307 307 308 307 306 307 306 306 306 306 305 304 304 305 305 304 305 304 303 301 301 301 301 300
312 311 311 310 310 312 317 313 312 309 309 310 313 311 312 309 308 307 307 307 308 306 306 307 305 306 306 305 305 304 304 304 304 305 303 302 302 302 303 302 301 301 301 300 300
311 311 309 308 310 313 317 312 310 308 308 311 311 310 309 308 308 308 308 306 305 305 305 305 304 305 304 303 303 303 304 304 304 303 304 303 302 303 301 301 301 301 300 300 300
308 313 306 307 313 310 313 311 308 309 307 308 309 309 308 306 306 307 308 306 302 302 304 304 303 304 303 303 302 303 303 303 304 303 303 304 304 302 301 301 301 301 300 300 300
306 305 304 308 318 313 308 306 306 308 306 308 307 306 306 306 304 306 306 303 303 303 302 302 302 302 301 302 302 301 301 301 302 303 303 304 302 301 300 301 301 300 299 299 300
304 318 305 306 304 310 310 308 306 303 304 304 304 304 303 304 304 305 304 304 301 300 301 302 303 302 301 300 301 300 299 299 300 301 302 300 299 301 301 301 299 299 298 299 300
304 304 299 311 306 305 306 306 304 304 303 302 303 303 302 303 301 301 302 301 300 300 301 300 299 298 298 298 298 298 298 298 300 300 301 300 300 301 301 300 299 298 298 299 299
303 304 300 301 300 302 301 303 303 303 302 302 303 301 301 301 301 300 300 300 299 299 299 299 299 298 298 298 298 298 299 299 299 299 300 300 300 300 299 299 299 299 299 298 298
301 300 302 298 301 303 302 302 303 301 300 300 301 301 300 300 299 299 298 298 298 298 298 298 298 298 298 297 298 299 299 298 299 299 299 300 300 299 300 299 299 299 298 298 298
Wind_Speed
12 13 13 14 14 13 14 15 16 12 9 7 5 5 7 9 9 8 13 10 11 8 8 6 7 4 5 5 5 3 2 2 2 1 3 5 4 4 4 5 4 5 5 4 9
13 13 13 13 14 13 14 15 15 12 7 4 4 5 10 12 15 18 13 9 8 7 6 4 6 5 3 3 4 3 2 4 4 4 4 6 7 6 4 7 5 9 8 8 11
13 14 14 14 15 14 14 14 13 11 7 3 3 6 11 9 6 10 10 8 8 7 6 6 5 4 4 3 5 3 3 3 4 4 8 8 7 6 7 4 12 15 16 14 12
15 15 15 14 15 16 15 11 8 12 6 3 4 8 10 3 2 7 9 8 8 8 7 7 4 2 2 3 3 1 3 3 2 5 8 8 8 2 8 9 7 9 11 12 12
16 15 15 15 16 16 14 9 5 8 8 7 9 12 9 11 7 7 8 8 7 6 7 4 9 3 3 2 2 2 4 5 7 5 5 4 2 2 10 8 9 9 12 12 10
16 16 15 15 17 17 12 9 7 8 10 12 13 10 7 10 8 9 8 8 7 7 9 9 5 4 5 3 4 5 6 6 5 5 6 5 1 6 6 6 9 9 10 10 9
18 18 16 16 18 16 11 9 8 10 13 15 17 19 20 10 9 8 6 8 9 9 7 9 7 3 1 3 4 3 1 5 10 9 6 7 4 5 7 9 10 8 7 9 10
18 17 15 14 16 14 11 10 10 10 11 10 8 8 9 11 10 6 4 6 7 7 7 8 7 7 6 3 0 2 1 5 6 9 5 9 9 8 10 14 13 4 2 6 10
17 16 16 14 16 12 7 9 10 10 10 8 7 7 6 9 13 10 10 7 6 7 11 9 5 6 6 4 3 5 6 8 7 4 8 7 13 15 14 19 11 5 5 7 9
15 15 16 14 16 14 7 19 16 9 11 10 7 7 8 8 16 15 8 11 9 3 3 8 5 4 10 9 5 9 8 8 12 8 13 15 14 11 12 9 4 4 6 8 9
14 15 16 13 18 17 4 6 2 8 30 12 10 10 7 9 19 18 12 7 6 9 7 6 7 9 9 8 6 8 11 16 15 11 16 14 19 18 2 3 4 3 4 5 6
14 15 15 10 17 16 10 6 10 14 16 18 17 13 16 9 5 22 12 5 10 9 10 3 8 7 4 6 8 10 11 10 7 8 15 17 21 6 0 1 2 4 4 6 6
15 14 14 8 11 14 18 14 17 11 5 8 14 9 10 10 10 17 17 6 7 10 9 7 6 6 6 7 9 4 6 10 13 19 21 13 13 6 3 3 2 2 5 7 9
14 14 14 11 6 12 17 9 8 6 3 7 7 9 12 2 5 17 17 7 5 7 4 6 6 8 7 6 7 8 8 12 16 17 10 10 8 3 3 3 3 6 8 8 9
12 12 13 12 8 15 10 6 6 2 3 5 5 6 10 9 8 14 16 7 7 7 5 5 8 8 6 6 7 5 14 14 20 15 8 4 6 4 4 3 8 12 12 11 13
11 11 12 9 10 13 12 4 4 3 3 2 5 9 3 12 6 11 12 11 4 1 7 4 3 4 5 5 3 12 12 21 4 6 6 7 3 8 5 7 9 12 15 17 19
12 12 12 10 11 12 11 1 3 3 0 4 4 6 5 9 8 10 7 14 8 4 7 3 2 2 9 7 1 13 12 7 6 5 10 4 10 14 9 6 7 12 22 20 21
12 11 11 11 11 12 8 3 2 2 4 2 3 2 4 10 6 8 4 6 14 9 5 8 1 6 9 5 6 6 7 4 7 10 18 18 9 3 6 5 9 22 23 26 31
12 10 8 11 12 8 2 4 4 3 2 5 0 2 3 3 4 3 7 4 8 13 9 8 2 5 4 6 4 4 6 6 12 14 10 7 12 10 3 15 28 19 27 31 30
12 5 10 12 9 6 3 5 3 3 4 2 3 3 4 7 3 5 3 3 3 8 5 4 8 3 6 5 2 2 5 4 4 6 15 12 20 12 15 23 20 22 30 29 28
9 2 11 8 5 9 4 5 4 5 1 4 1 2 3 3 3 4 4 3 5 6 5 5 2 0 6 4 12 7 4 4 5 8 11 15 9 17 23 18 18 29 28 25 24
4 0 14 5 5 6 3 3 2 3 7 5 4 4 2 3 1 2 3 3 5 5 5 4 5 7 12 9 4 1 2 4 7 15 13 14 18 15 14 25 26 24 24 22 20
3 4 12 4 4 4 5 4 5 2 5 2 3 4 3 3 1 2 1 4 2 4 5 5 2 8 3 6 5 4 11 15 15 10 19 16 15 19 30 27 26 24 23 19 20
2 1 8 13 8 6 6 4 4 4 4 6 4 3 2 2 3 2 2 1 4 6 5 5 5 9 10 16 16 18 22 17 15 11 17 19 22 21 20 18 22 23 22 21 20
4 4 3 3 6 8 5 2 5 3 4 4 4 5 3 2 1 1 1 4 3 5 2 4 7 11 13 18 19 21 22 21 15 18 15 20 21 19 17 17 21 23 23 23 23
2 5 7 4 3 3 3 2 4 4 1 2 4 4 3 1 3 4 3 2 3 0 5 6 4 12 15 12 11 18 19 12 12 14 14 16 18 14 20 21 22 26 26 25 25
3 8 5 1 2 1 2 5 5 9 5 6 6 2 1 1 2 7 8 10 13 10 7 4 4 7 7 14 18 15 4 12 11 13 13 10 13 23 19 24 27 31 26 21 23
Wind_Direction
14 11 8 5 1 357 354 354 351 349 352 4 27 58 97 106 94 88 66 59 49 43 41 42 29 35 56 49 46 22 260 49 53 352 72 29 5 29 331 328 11 15 345 356 5
14 11 7 3 360 357 353 353 352 348 344 11 47 88 114 109 89 71 57 50 39 37 39 34 24 44 62 37 18 357 344 51 28 22 10 356 350 339 316 356 1 347 352 333 336
15 11 6 1 358 356 353 353 0 13 16 52 77 118 133 119 75 25 36 37 30 32 30 27 28 45 63 39 19 16 40 49 62 27 349 331 328 345 339 26 4 339 338 344 350
11 8 4 0 359 355 353 354 15 24 30 69 101 132 133 88 91 16 28 26 26 28 24 34 26 58 72 66 13 191 64 19 14 348 324 323 321 12 61 24 15 14 13 14 23
8 8 6 5 5 0 359 9 26 26 48 85 115 128 118 79 58 41 35 35 34 40 51 64 50 56 66 40 32 45 23 337 325 334 349 320 346 107 63 46 32 37 32 30 29
9 13 15 11 9 6 20 37 70 57 79 104 116 117 98 82 59 45 40 40 47 49 45 52 48 59 75 47 17 343 324 331 32 23 44 342 70 181 51 34 23 30 39 40 40
10 12 17 15 13 17 38 58 76 86 94 104 102 101 82 72 58 43 58 49 53 54 54 49 49 46 17 105 358 327 16 147 49 24 34 334 203 169 13 1 357 3 44 49 47
10 10 15 20 21 28 57 67 81 95 114 114 101 91 78 67 58 54 54 35 37 43 51 37 71 75 38 334 68 2 163 342 33 4 26 349 285 175 341 330 328 324 79 74 56
9 10 13 23 24 31 67 56 90 95 111 106 102 94 67 55 41 44 49 46 43 68 46 33 70 62 15 339 167 45 330 332 329 75 340 343 286 281 322 331 328 352 38 48 44
7 10 15 24 26 31 121 80 75 101 98 80 82 88 53 34 41 41 40 45 47 42 3 32 56 77 30 15 10 329 323 307 306 330 334 307 291 305 351 350 32 59 54 44 26
12 12 16 26 23 32 92 140 89 69 67 66 60 75 65 74 47 29 34 44 36 45 12 30 64 44 23 24 350 315 305 305 320 336 325 312 300 304 360 118 111 87 53 41 26
17 15 15 27 31 37 61 106 124 127 72 64 63 58 47 49 29 20 41 45 35 35 358 110 68 24 5 5 336 323 316 340 308 330 320 309 301 314 99 166 49 40 41 22 11
20 17 16 23 30 36 51 89 128 117 98 41 44 31 17 50 43 6 22 6 21 24 27 49 44 354 359 354 353 16 2 333 308 314 293 324 290 161 149 135 73 26 355 356 356
18 20 19 20 25 23 38 66 153 132 146 19 8 16 3 96 63 17 24 7 27 26 38 60 21 9 357 68 352 319 348 314 305 317 316 11 297 140 151 150 160 354 359 355 351
18 19 25 27 31 31 18 45 137 152 225 13 20 3 24 63 330 9 15 24 29 15 315 52 10 14 36 359 339 337 323 297 295 290 297 138 266 108 133 213 12 8 360 348 339
15 15 19 23 22 15 11 52 118 220 94 57 14 2 46 32 29 357 17 34 65 91 76 53 80 39 349 336 357 323 305 293 229 258 250 105 316 288 20 359 3 12 354 337 328
8 10 15 21 8 3 358 67 215 25 216 32 7 7 59 22 29 15 29 43 27 339 20 331 132 100 15 329 192 351 341 324 301 288 316 93 302 273 56 38 0 349 339 333 329
2 2 9 16 5 348 349 241 56 40 37 15 1 54 65 5 42 25 27 44 31 1 332 346 294 7 5 5 307 337 355 302 295 311 304 314 263 50 44 8 345 323 335 328 327
355 352 13 2 348 348 320 48 47 42 357 342 266 28 79 49 356 54 52 53 31 16 8 339 292 350 357 335 315 28 309 357 283 277 288 246 274 264 212 339 338 337 334 326 325
353 7 8 0 4 30 60 90 94 40 360 329 38 356 20 13 357 16 34 27 50 37 6 63 291 55 323 296 164 353 338 272 230 279 293 292 304 304 336 326 327 327 328 325 326
354 74 355 357 27 49 72 76 115 58 93 15 88 90 74 28 9 35 28 75 27 17 13 339 212 125 313 305 318 315 273 230 291 276 289 302 287 339 318 327 323 322 323 322 326
12 305 357 32 49 51 63 64 104 47 50 74 77 59 50 40 55 79 43 45 45 8 7 17 305 281 289 326 289 280 311 281 279 288 277 283 283 312 312 315 323 321 319 317 323
51 8 10 87 98 93 114 84 63 51 44 72 93 37 53 52 4 36 34 151 50 1 5 10 189 305 279 165 179 309 300 291 278 269 267 283 288 309 312 316 319 324 325 320 324
61 52 23 54 68 111 132 121 118 47 70 64 96 94 96 69 49 162 218 160 306 311 319 264 247 244 269 295 308 298 293 291 283 276 287 281 295 301 322 319 327 327 327 323 321
48 75 74 37 41 89 72 75 129 118 69 63 83 94 123 149 280 224 275 303 318 2 94 357 268 282 287 288 289 286 285 295 288 277 272 284 290 301 324 328 323 322 327 327 322
62 127 88 88 113 107 41 99 132 113 62 102 146 137 102 93 337 307 313 299 279 298 327 324 279 303 298 287 282 288 291 294 295 298 284 270 279 359 328 323 324 327 323 323 324
120 141 128 81 106 185 78 132 134 132 71 76 130 158 231 19 310 300 287 281 281 286 290 285 305 317 294 313 309 280 3 323 320 319 309 295 341 326 326 325 323 321 321 317 324